Location: Arroyo de Valdeoliva
(40.1604°N, 4.9878°W)
Time: 20:17:22
(UTC+00:00)

Cosmos 1825 Rocket - Pass Details

Date: 11 December 2025
Orbit: 596 x 624 km, 82.5° (Epoch: 10 January)

Event Time Altitude Azimuth Distance (km) Brightness Sun altitude
Rises 17:22:07 0° 4° (N) 2,874 6.7 -5.5°
Reaches altitude 10° 17:24:37 10° 16° (NNE) 1,961 5.7 -6.0°
Maximum altitude 17:28:20 28° 75° (ENE) 1,153 4.4 -6.6°
Drops below altitude 10° 17:32:01 10° 135° (SE) 1,936 5.9 -7.3°
Sets 17:34:28 0° 147° (SSE) 2,830 6.9 -7.7°
